Wind_Speed
50 51 51 52 54 56 56 56 58 60 61 61 60 58 57 55 54 55 56 57 58 59 60 61 63 65 66 68 69 70 70 70 67 62 59 55 49 43 38 36 35 34 34 34 33 32 34 40 42 41 42 43 39 36 37 38 36 35 33 31 30 28 28
52 53 55 56 57 58 58 58 58 60 62 62 62 61 59 58 57 57 57 58 58 59 60 61 63 65 66 68 69 70 70 68 65 61 58 54 49 43 37 34 35 35 33 35 35 32 33 39 41 41 42 43 41 38 38 38 36 35 34 32 31 29 30
52 54 56 58 59 60 61 61 61 62 63 64 64 63 62 60 58 57 57 57 58 59 60 61 63 65 65 66 68 68 66 65 63 60 56 51 47 43 38 36 35 35 34 36 36 31 32 37 39 40 41 41 41 39 38 37 36 35 34 33 31 32 32
54 55 56 57 59 61 62 64 65 65 65 65 65 63 62 59 57 55 56 57 58 59 59 60 61 63 64 64 64 64 63 62 61 58 53 47 43 40 38 38 37 36 36 35 31 29 30 35 37 38 39 39 39 38 37 37 37 35 34 33 33 34 34
55 56 56 57 60 62 64 66 67 67 66 65 64 62 60 58 56 56 57 59 58 58 58 58 59 60 61 61 60 60 60 60 59 56 50 44 40 36 35 36 36 37 37 33 28 26 29 34 36 36 36 36 36 36 36 37 38 36 34 34 35 36 35
57 58 58 60 62 64 66 67 68 68 66 64 62 60 58 57 56 57 58 58 56 55 55 54 55 56 56 57 57 56 57 58 56 52 45 40 37 33 31 32 33 37 37 34 30 27 29 33 34 33 33 33 34 35 35 36 37 36 35 36 37 38 38
58 59 60 62 64 66 68 69 68 67 64 62 60 58 57 57 56 56 55 54 52 52 51 50 50 51 52 54 54 54 54 55 53 47 40 37 36 33 30 28 33 37 37 34 30 27 29 32 32 33 34 34 34 35 34 34 35 35 36 38 39 39 38
59 60 62 64 66 68 68 67 65 62 59 57 56 55 54 53 52 51 51 50 49 49 48 47 46 47 49 51 51 51 51 51 48 43 38 35 34 31 26 25 32 37 36 32 28 27 29 31 32 32 32 32 33 34 35 35 35 35 37 38 38 37 35
60 61 63 64 64 64 62 60 58 56 54 52 51 50 49 49 48 48 47 46 46 46 45 43 42 44 47 49 49 48 47 46 44 40 38 34 29 25 20 22 31 34 34 30 27 29 31 32 32 31 29 28 30 33 35 35 34 35 36 36 35 34 33
58 58 58 58 58 57 55 54 52 50 48 47 46 46 46 45 45 45 45 44 43 43 42 40 39 42 45 47 47 46 44 42 40 38 36 30 23 17 14 20 27 30 30 29 29 33 35 33 31 31 30 28 29 32 33 32 33 34 35 35 34 33 34
52 52 51 51 51 51 49 48 47 45 45 45 45 44 44 43 43 43 43 42 41 40 40 38 37 39 42 44 44 43 39 37 36 34 31 24 15 9 11 18 24 27 29 29 32 36 37 33 30 30 30 30 31 32 33 32 32 32 34 34 34 35 37
46 46 46 46 46 46 46 45 45 45 45 45 44 43 43 42 43 43 42 41 39 38 38 37 36 36 39 41 41 39 35 32 31 29 24 16 8 7 12 17 21 24 27 29 31 33 33 31 29 29 28 29 31 32 33 33 33 33 34 35 36 38 38
43 43 43 44 44 45 45 46 45 45 45 44 44 43 43 43 42 42 41 40 38 37 37 36 35 34 36 38 38 36 32 29 27 24 18 10 7 11 15 17 20 22 26 28 28 30 31 29 29 30 30 31 33 33 32 33 33 34 35 36 38 39 38
41 42 43 44 44 45 46 46 46 46 45 45 45 44 43 43 42 41 41 40 38 36 36 36 34 33 33 34 36 34 30 26 24 21 15 11 12 15 17 18 21 23 24 26 27 29 31 31 31 32 34 36 37 34 32 31 32 33 34 34 35 36 35
41 42 43 44 45 46 47 47 47 47 47 47 46 45 44 43 43 42 41 40 38 36 36 35 34 33 31 31 33 32 29 24 22 20 16 16 18 19 20 21 23 25 26 26 25 27 30 31 33 35 37 38 37 34 32 31 31 33 34 34 33 33 33
42 43 44 45 46 47 48 49 49 48 48 47 47 46 45 44 43 42 42 41 39 37 35 35 34 33 31 29 30 30 28 23 21 21 20 21 23 23 23 23 25 27 29 29 27 28 31 31 33 36 39 40 38 37 35 33 33 35 36 36 36 35 34
44 45 46 47 48 49 49 49 49 48 47 46 46 45 44 43 43 42 42 41 39 37 35 35 34 33 31 29 28 28 28 24 21 22 23 24 27 28 27 26 26 28 30 31 31 32 33 34 35 37 39 41 42 41 40 39 38 38 39 39 38 38 39
46 47 47 48 48 48 48 47 47 46 45 44 44 44 43 42 42 42 42 41 40 38 36 35 34 33 32 30 28 27 27 25 21 22 24 26 28 30 31 30 29 30 32 33 34 34 34 35 37 39 41 43 45 43 42 42 41 37 37 38 39 40 41
46 47 47 47 47 47 46 45 44 44 43 43 43 43 43 43 43 43 42 41 40 39 37 36 35 34 33 32 30 27 26 25 23 21 24 27 29 31 33 34 34 34 35 36 37 37 35 35 37 40 42 44 45 45 44 44 41 38 36 38 40 44 45
46 47 47 47 47 46 45 45 44 44 43 44 44 44 44 44 44 44 43 42 41 40 38 37 37 35 34 33 32 29 27 26 24 23 23 27 31 33 33 35 36 37 38 39 40 40 39 37 37 40 43 44 46 47 47 45 44 42 40 39 40 45 50
48 48 49 49 48 47 46 46 46 46 46 46 46 45 46 46 46 45 44 43 42 42 41 39 39 37 36 35 34 32 30 28 26 24 23 24 29 34 37 37 38 39 40 41 42 42 42 41 40 41 43 44 45 46 47 47 48 46 44 42 42 43 49
50 51 50 50 49 48 48 48 48 48 49 48 48 47 47 47 47 46 45 44 43 43 42 41 41 40 39 37 36 35 33 31 29 27 25 24 26 31 37 40 41 41 42 43 44 44 44 43 42 42 43 44 45 46 46 48 50 50 47 46 45 43 45
52 52 51 50 50 49 49 49 50 50 50 50 50 49 49 48 47 47 46 45 45 44 44 43 43 42 42 40 39 37 36 35 33 31 29 27 27 28 32 38 42 44 45 45 46 46 47 46 45 44 43 44 46 47 48 49 50 51 50 50 51 49 47
52 52 51 51 50 50 50 50 51 51 52 52 52 52 51 50 49 48 48 47 46 46 46 45 45 45 44 44 42 41 39 38 37 35 34 32 31 29 30 33 38 43 46 48 49 49 49 49 48 47 47 47 47 47 48 50 52 53 54 54 56 56 54
53 53 52 51 51 51 51 51 52 53 53 54 55 55 54 53 51 49 49 48 48 47 47 47 47 47 46 45 45 44 42 41 41 40 38 37 36 34 33 33 34 38 43 47 50 52 52 52 52 51 51 52 52 51 50 50 52 54 56 57 60 62 62
55 54 53 52 52 52 52 52 53 54 55 56 56 56 55 54 52 51 49 49 49 48 48 49 48 48 48 47 46 46 46 45 44 44 43 42 40 39 38 37 36 37 39 43 47 51 54 55 56 56 56 55 56 57 57 55 54 55 57 58 61 65 68
56 55 54 53 53 52 53 53 54 55 56 56 56 55 54 53 53 52 51 51 50 49 49 49 49 49 49 48 48 48 48 48 48 47 47 46 45 44 43 42 41 40 40 41 44 48 51 55 58 59 60 60 60 60 62 62 61 59 60 60 62 65 68
56 55 54 53 53 53 53 54 54 55 56 56 55 54 53 52 52 52 52 52 52 51 50 49 49 49 49 49 50 50 50 50 50 50 50 49 49 48 47 46 45 45 44 44 44 46 48 52 55 59 61 63 64 64 64 66 66 66 65 65 65 66 68
56 56 54 53 53 53 54 54 55 56 56 55 55 53 52 51 51 51 51 52 52 52 51 51 50 50 50 50 50 51 51 51 52 52 52 52 52 51 51 50 50 49 48 48 47 48 49 50 52 55 59 62 65 66 67 68 69 70 70 70 70 70 70
56 55 54 53 54 54 54 55 55 56 56 55 55 54 54 53 53 52 52 52 52 52 52 52 52 51 51 51 52 52 52 52 53 53 54 54 54 54 54 54 54 53 53 52 51 51 52 52 53 54 57 60 63 66 69 70 71 72 73 74 74 74 74
55 54 53 53 53 53 54 55 56 56 56 56 57 57 57 56 55 54 54 54 53 53 53 52 52 53 53 53 53 54 54 54 55 55 55 56 56 57 57 57 57 57 57 56 56 55 55 55 56 57 58 59 61 64 68 71 73 75 75 76 77 78 78
54 53 53 53 53 54 55 56 56 56 57 58 58 58 57 56 56 55 55 55 55 54 54 53 53 53 54 54 55 55 56 56 57 57 58 58 59 59 60 60 61 61 61 61 60 60 60 59 60 60 61 62 62 64 66 69 73 76 78 79 80 81 81
52 52 52 53 54 55 57 57 58 57 57 57 57 57 57 57 57 56 56 56 55 55 55 55 55 55 55 56 56 57 57 58 59 60 60 61 62 62 63 64 64 64 65 65 65 64 64 64 64 64 64 65 65 66 67 68 71 73 77 79 81 82 83
51 52 53 54 55 57 58 58 58 58 57 57 57 58 58 58 57 56 55 55 54 54 55 56 56 57 57 58 58 59 60 60 61 62 63 64 64 65 65 66 66 67 67 67 67 67 67 67 67 67 67 67 68 68 69 70 72 73 75 77 80 82 83
52 53 54 56 57 58 59 59 58 57 56 57 57 58 58 57 56 55 54 54 53 53 53 54 55 56 57 58 59 60 61 62 63 63 64 65 66 66 67 67 67 68 68 68 68 68 68 68 68 68 69 69 70 71 71 73 74 75 76 77 79 81 83
53 54 56 57 58 58 58 57 57 56 56 56 57 58 57 57 56 55 54 53 53 53 53 54 55 56 57 58 59 61 62 63 64 65 66 66 67 67 67 68 68 68 68 67 67 67 67 67 68 68 69 69 70 71 73 74 76 77 78 79 80 81 82
55 56 57 57 58 57 57 56 56 56 57 57 58 58 57 56 55 54 54 53 53 54 55 56 57 57 59 60 61 63 64 65 66 67 68 69 69 69 69 69 69 68 68 67 66 66 65 65 65 66 66 68 69 70 72 73 75 77 80 81 82 84 84
Wind_Direction
265 265 267 272 275 278 282 283 285 289 295 299 302 302 302 303 303 303 302 301 300 300 301 303 304 305 306 307 307 308 310 310 310 309 308 306 301 293 283 278 276 267 254 248 248 251 249 242 240 241 242 242 237 231 234 236 237 240 242 242 244 249 253
267 268 268 270 273 276 280 283 285 289 293 297 300 302 302 302 303 304 303 302 301 301 303 305 305 306 307 307 308 309 310 311 310 310 309 305 300 290 277 267 265 262 253 245 245 247 244 239 239 241 240 239 238 234 234 236 236 239 241 241 243 247 252
270 271 270 269 271 274 279 283 288 291 294 296 298 300 300 301 302 303 303 303 303 304 305 306 306 306 306 307 308 309 311 311 310 310 309 304 296 287 273 258 251 251 248 243 244 247 241 235 237 240 239 238 238 237 236 236 236 238 239 241 243 246 250
271 270 269 268 271 274 278 283 288 291 294 296 297 298 298 299 301 302 304 304 304 305 305 305 304 304 305 307 308 311 312 312 311 311 309 302 293 285 273 256 242 237 238 238 243 248 239 232 234 237 238 239 238 238 238 237 236 237 238 240 241 245 250
271 270 268 268 271 274 277 282 287 291 293 295 295 296 297 298 299 300 302 304 303 303 304 303 304 304 306 308 310 313 314 313 313 312 308 301 292 285 277 262 239 228 228 227 233 242 235 229 231 234 237 240 240 239 239 238 238 238 238 239 241 245 250
270 270 268 268 270 274 279 284 288 291 292 293 294 294 295 296 298 299 300 301 302 302 303 303 304 306 308 310 312 315 315 314 313 312 308 303 297 289 281 264 236 223 223 222 224 230 227 225 227 232 238 243 242 240 240 241 242 241 240 239 241 244 248
270 269 268 269 271 276 281 285 288 289 290 291 292 292 294 295 297 298 298 300 301 301 302 304 305 307 309 311 314 317 316 315 314 313 310 307 301 294 284 259 228 217 218 219 221 223 220 220 223 229 236 240 241 239 239 241 242 243 242 241 241 244 250
270 270 271 273 276 279 282 285 286 287 289 290 291 292 294 295 296 297 298 299 300 300 302 304 306 307 309 312 316 318 318 316 316 315 314 311 303 294 281 247 219 213 215 217 218 216 214 216 220 226 233 239 242 240 238 239 241 243 244 245 246 249 253
272 273 275 277 279 281 282 284 286 287 289 291 293 294 295 295 296 297 298 299 300 300 301 304 306 308 311 314 317 320 320 318 318 318 317 314 306 294 271 230 212 211 213 215 215 212 210 214 219 222 226 233 240 241 239 239 241 245 247 248 250 251 252
274 276 277 279 280 281 283 285 287 289 291 293 294 295 295 296 297 297 299 300 299 299 301 303 306 309 312 315 319 322 322 319 320 320 318 316 310 292 250 216 209 209 211 213 213 211 211 215 221 222 223 226 235 242 243 242 244 246 248 249 249 247 247
275 277 278 279 281 283 285 287 289 291 292 293 294 294 295 296 297 298 299 299 299 298 299 302 305 309 313 316 320 323 322 319 318 318 317 317 310 276 223 209 209 211 211 212 216 217 214 216 220 223 225 228 233 241 246 247 249 248 248 248 248 245 244
276 278 279 281 283 285 287 289 290 291 292 293 293 294 296 297 298 299 299 299 297 296 297 300 304 309 313 316 320 323 322 317 314 311 311 311 293 224 205 210 215 216 215 215 221 223 218 217 221 225 229 233 235 240 245 248 251 252 250 249 248 249 251
279 280 281 283 285 286 288 289 290 291 292 293 295 296 297 298 298 299 299 298 296 294 295 298 302 307 311 315 319 323 322 315 308 303 298 284 240 208 208 218 222 220 218 218 221 221 216 218 226 230 231 233 232 234 240 244 247 249 250 249 250 252 256
282 283 284 285 286 287 288 289 290 292 293 294 296 297 297 298 298 298 297 296 295 293 293 295 299 303 309 314 318 322 322 311 300 293 275 243 218 211 215 223 223 219 219 221 224 225 222 222 229 232 231 234 235 235 238 243 246 249 251 252 253 252 252
284 284 285 285 286 287 288 290 291 293 294 295 296 297 297 296 296 296 295 294 292 291 290 292 296 300 305 311 316 320 321 309 292 280 257 229 217 215 218 225 225 221 220 222 228 235 235 233 234 233 230 233 238 239 239 244 247 250 252 254 255 254 251
284 285 285 286 287 288 290 292 293 295 296 296 296 296 295 294 293 292 291 290 289 288 288 289 293 297 302 307 312 316 319 310 287 271 252 231 221 220 220 224 227 226 223 221 226 236 241 242 240 237 232 230 234 236 236 238 240 242 246 250 253 254 253
284 286 287 288 289 291 293 294 295 296 297 297 297 296 295 293 291 290 288 288 287 286 285 285 289 294 298 302 307 310 315 312 290 267 252 236 227 225 225 225 227 229 227 225 227 233 239 242 241 239 236 235 237 239 238 237 239 243 247 250 252 254 254
285 286 287 289 291 292 294 295 296 297 297 297 298 298 297 295 292 289 287 286 285 284 282 282 284 289 293 296 301 305 309 311 299 272 253 241 233 230 229 228 228 230 229 229 230 233 238 243 244 241 239 239 241 243 242 239 240 247 256 260 260 261 262
285 286 288 289 291 292 294 296 297 298 298 299 299 299 298 296 294 291 288 285 283 282 280 279 280 284 288 291 295 299 301 305 304 285 260 245 238 234 233 232 231 232 232 232 233 234 238 244 246 243 240 240 241 243 243 240 236 240 251 257 259 260 261
285 287 288 289 290 291 293 295 296 298 299 299 299 299 297 296 295 293 290 286 282 281 279 277 277 279 282 286 289 292 294 296 299 295 276 254 243 238 237 236 235 235 235 235 235 236 238 242 244 243 240 238 239 241 242 240 236 236 242 247 250 253 253
286 287 288 289 289 290 291 294 296 297 298 298 298 297 296 295 293 292 290 287 282 280 278 277 276 276 278 281 284 287 289 290 291 292 287 271 253 244 241 240 240 241 240 239 239 240 242 244 245 245 242 239 239 239 240 240 238 239 241 242 247 251 249
286 288 289 289 289 290 292 294 295 296 296 296 296 295 294 293 292 290 289 286 283 280 278 277 276 276 276 277 279 281 284 286 286 286 286 281 269 255 247 244 243 244 245 244 244 244 245 247 248 247 246 244 242 241 240 241 242 243 242 240 243 249 247
286 287 288 288 289 291 292 293 294 295 295 294 294 294 293 292 291 289 287 286 284 281 280 279 277 277 276 276 277 277 279 281 282 281 280 280 277 269 259 251 247 246 247 247 248 247 247 248 248 249 247 244 244 245 244 243 244 246 244 239 238 243 243
285 286 287 288 289 291 292 293 293 294 294 295 295 294 293 291 290 288 287 286 284 283 282 281 279 278 277 276 276 276 276 277 278 279 278 276 275 273 269 262 256 252 250 249 249 249 249 248 248 247 245 242 242 243 244 244 245 247 246 241 237 239 243
284 285 286 288 289 290 291 292 293 294 295 295 295 295 294 293 290 288 286 285 285 284 283 282 281 279 277 276 276 275 275 275 276 276 276 276 274 272 270 267 264 260 257 255 253 251 251 250 249 248 246 244 242 241 243 244 244 244 245 242 238 238 243
283 284 285 286 288 290 291 292 293 295 295 296 295 295 295 294 292 289 287 286 285 284 284 283 282 280 278 276 275 275 275 275 275 275 275 275 274 273 272 269 266 263 261 259 258 256 254 252 251 250 248 247 244 242 242 243 243 243 243 243 241 240 243
281 282 284 286 287 289 291 292 293 294 295 295 295 295 294 294 293 291 288 287 286 285 284 283 282 280 279 277 276 276 275 275 275 275 275 275 274 273 273 272 270 267 264 261 259 259 257 256 254 253 251 249 248 246 244 244 244 244 243 243 243 242 244
280 281 283 285 287 289 290 292 293 295 295 295 294 294 294 294 293 292 291 289 288 287 285 284 283 281 279 278 277 277 277 276 276 276 276 276 275 275 274 273 272 270 268 265 262 260 258 257 256 255 254 252 251 250 249 247 247 247 247 246 245 244 244
279 281 283 285 287 288 290 291 293 294 294 294 293 293 293 293 293 293 293 291 289 288 287 286 285 284 282 280 279 278 277 277 277 276 276 276 276 276 275 274 273 272 270 268 266 264 261 259 256 255 254 253 253 253 252 251 250 250 250 249 248 247 247
279 281 283 285 287 288 289 291 293 293 292 292 292 292 292 293 292 292 293 293 291 289 288 287 287 286 285 283 282 280 279 278 278 277 277 277 277 276 276 275 274 273 272 270 268 266 264 262 260 257 255 253 252 251 252 252 252 252 252 251 251 250 250
279 281 283 285 286 287 289 291 292 291 291 290 291 291 292 292 291 290 290 292 291 290 288 287 287 286 285 285 284 283 282 281 280 280 279 278 278 277 276 276 275 274 273 272 270 268 265 263 262 261 259 256 253 251 250 250 250 251 252 252 253 253 253
280 282 283 284 285 286 288 290 291 290 289 289 290 292 293 293 292 291 290 290 290 289 287 287 286 285 285 284 283 283 282 282 281 280 280 279 278 278 277 276 275 274 273 272 270 268 266 264 262 260 260 259 257 254 251 249 248 249 249 250 251 252 253
280 282 282 283 284 286 287 289 289 289 289 290 292 294 294 294 294 293 292 291 289 287 286 285 285 284 284 283 283 282 282 281 281 280 279 279 278 278 277 276 275 275 274 272 271 269 267 265 263 261 259 258 257 256 254 252 250 249 248 248 248 250 251
280 281 281 282 284 286 287 288 288 288 289 292 294 295 295 295 294 294 293 291 289 287 285 284 284 284 284 283 283 283 282 282 281 281 280 280 279 278 278 277 276 275 274 273 272 271 269 267 265 263 260 258 256 255 254 253 252 251 249 248 247 247 248
279 279 280 282 284 285 286 287 287 289 291 293 295 295 295 294 294 293 292 291 289 288 287 286 285 285 284 284 284 284 284 284 283 283 282 282 281 281 280 279 278 277 276 275 274 273 271 270 268 265 263 260 258 255 253 252 251 251 250 249 248 247 247
278 279 280 282 284 285 286 286 288 290 292 294 295 296 295 294 293 292 291 291 290 289 289 288 288 287 287 287 287 287 287 287 287 287 287 286 286 285 285 284 283 282 281 279 278 276 274 272 270 268 265 263 260 257 255 252 250 249 249 249 249 248 247
277 279 281 282 283 284 285 287 289 291 292 293 295 296 295 293 293 292 292 292 292 291 291 291 291 292 292 292 292 292 292 292 292 292 291 291 290 290 289 288 287 286 284 283 281 279 277 275 272 270 267 265 262 260 257 255 252 250 248 248 248 248 248
Height
10719 10719 10718 10717 10716 10714 10713 10713 10712 10711 10709 10708 10707 10705 10704 10703 10701 10700 10698 10697 10694 10692 10689 10686 10683 10680 10677 10674 10671 10669 10668 10664 10661 10659 10655 10651 10651 10652 10652 10654 10654 10655 10656 10657 10658 10660 10661 10663 10665 10668 10670 10673 10676 10680 10682 10684 10687 10688 10690 10692 10693 10695 10696
10715 10714 10713 10712 10711 10710 10709 10708 10708 10707 10705 10704 10702 10700 10699 10697 10696 10695 10693 10691 10689 10686 10683 10680 10677 10673 10671 10667 10664 10662 10660 10656 10653 10651 10648 10644 10643 10644 10645 10648 10649 10649 10651 10651 10652 10654 10656 10658 10660 10663 10665 10667 10671 10674 10676 10679 10682 10684 10686 10688 10690 10691 10692
10710 10709 10708 10707 10706 10705 10704 10703 10703 10702 10701 10699 10697 10696 10694 10693 10692 10690 10688 10686 10684 10681 10678 10675 10671 10668 10666 10662 10659 10656 10653 10650 10646 10643 10641 10637 10634 10635 10636 10638 10640 10643 10645 10645 10647 10650 10652 10654 10656 10658 10660 10663 10666 10669 10671 10674 10678 10680 10682 10684 10686 10687 10688
10704 10704 10704 10703 10702 10700 10699 10698 10698 10697 10696 10694 10693 10691 10690 10688 10687 10686 10683 10681 10679 10676 10673 10671 10667 10663 10661 10658 10654 10651 10647 10643 10639 10636 10633 10630 10627 10626 10627 10629 10631 10634 10636 10638 10642 10646 10648 10650 10651 10653 10656 10659 10662 10664 10666 10669 10672 10675 10678 10679 10681 10682 10683
10699 10699 10699 10699 10698 10696 10694 10693 10693 10692 10691 10689 10688 10686 10685 10684 10683 10681 10679 10677 10674 10672 10669 10666 10663 10659 10656 10652 10650 10646 10642 10637 10633 10629 10626 10623 10620 10619 10619 10621 10624 10626 10629 10633 10637 10640 10642 10645 10647 10650 10652 10655 10658 10660 10662 10665 10668 10671 10673 10675 10676 10678 10679
10694 10694 10694 10694 10692 10691 10690 10689 10688 10687 10686 10685 10683 10682 10681 10680 10679 10677 10674 10672 10670 10667 10665 10662 10658 10654 10651 10648 10645 10642 10637 10632 10627 10624 10620 10616 10614 10613 10612 10614 10617 10621 10624 10628 10631 10634 10637 10641 10644 10647 10649 10651 10654 10656 10658 10662 10664 10667 10669 10671 10672 10673 10675
10689 10689 10689 10688 10687 10686 10685 10684 10683 10682 10681 10680 10678 10677 10676 10675 10674 10672 10670 10668 10666 10663 10660 10658 10654 10651 10647 10644 10641 10638 10632 10627 10622 10618 10615 10611 10608 10607 10606 10608 10611 10616 10620 10624 10627 10630 10634 10638 10641 10643 10645 10648 10650 10652 10655 10658 10661 10663 10665 10666 10668 10670 10671
10684 10684 10683 10683 10682 10681 10680 10679 10678 10677 10676 10675 10673 10672 10671 10670 10669 10668 10666 10663 10661 10658 10656 10654 10651 10647 10643 10640 10638 10634 10628 10622 10618 10614 10610 10607 10604 10602 10602 10603 10607 10613 10617 10622 10626 10629 10632 10635 10638 10640 10642 10644 10646 10649 10652 10654 10657 10659 10660 10662 10665 10667 10667
10679 10679 10678 10677 10677 10676 10675 10674 10673 10672 10671 10669 10668 10667 10666 10665 10664 10662 10661 10659 10656 10654 10652 10650 10647 10644 10640 10637 10634 10631 10625 10619 10615 10610 10606 10604 10601 10599 10599 10601 10606 10612 10617 10621 10624 10627 10630 10632 10634 10637 10639 10641 10643 10645 10647 10651 10653 10654 10656 10658 10661 10662 10663
10673 10673 10673 10672 10671 10670 10670 10669 10668 10667 10665 10664 10664 10662 10661 10660 10658 10657 10656 10654 10652 10649 10648 10646 10644 10640 10636 10633 10630 10627 10622 10617 10613 10608 10605 10602 10600 10598 10599 10602 10607 10612 10616 10619 10622 10624 10627 10629 10631 10634 10636 10638 10640 10641 10644 10647 10649 10650 10652 10654 10656 10657 10658
10668 10668 10668 10667 10666 10665 10664 10663 10663 10662 10660 10660 10659 10658 10657 10655 10654 10652 10651 10649 10647 10645 10643 10642 10640 10637 10634 10630 10628 10624 10620 10616 10612 10608 10605 10602 10600 10600 10602 10605 10609 10613 10616 10618 10619 10621 10624 10626 10629 10631 10633 10636 10638 10639 10641 10644 10645 10646 10648 10650 10651 10652 10653
10664 10663 10662 10661 10660 10659 10658 10658 10657 10656 10656 10655 10654 10653 10652 10650 10649 10647 10646 10645 10643 10641 10640 10639 10637 10635 10631 10628 10625 10622 10618 10615 10612 10609 10606 10604 10603 10603 10605 10608 10610 10613 10615 10616 10618 10620 10623 10625 10627 10629 10631 10633 10635 10637 10638 10640 10642 10643 10644 10646 10647 10647 10647
10658 10658 10657 10656 10655 10654 10653 10653 10652 10652 10651 10650 10649 10647 10646 10645 10644 10643 10641 10640 10639 10638 10636 10635 10634 10632 10629 10625 10623 10620 10617 10614 10611 10609 10607 10606 10605 10606 10607 10609 10611 10612 10614 10615 10617 10619 10621 10623 10625 10626 10628 10629 10631 10633 10634 10636 10638 10638 10639 10641 10642 10642 10643
10653 10652 10651 10650 10649 10649 10648 10648 10647 10646 10645 10644 10643 10642 10641 10640 10639 10638 10637 10636 10635 10634 10632 10631 10630 10629 10627 10623 10620 10618 10615 10612 10611 10609 10607 10606 10606 10607 10608 10609 10610 10611 10612 10613 10615 10617 10619 10621 10622 10623 10624 10624 10626 10628 10629 10631 10633 10634 10635 10636 10637 10638 10640
10648 10647 10646 10645 10644 10644 10643 10642 10642 10641 10640 10638 10637 10636 10635 10634 10633 10633 10632 10631 10630 10630 10629 10627 10626 10625 10624 10621 10618 10615 10613 10611 10609 10608 10607 10606 10606 10606 10607 10607 10608 10609 10610 10611 10613 10615 10616 10618 10619 10620 10621 10621 10623 10625 10626 10627 10629 10629 10630 10632 10633 10634 10636
10643 10642 10641 10640 10639 10639 10638 10637 10636 10635 10634 10632 10631 10631 10630 10629 10628 10628 10627 10626 10626 10625 10624 10623 10622 10621 10620 10618 10616 10613 10611 10609 10607 10607 10606 10605 10605 10605 10605 10606 10606 10607 10608 10609 10611 10612 10613 10614 10616 10617 10618 10619 10620 10620 10622 10623 10624 10625 10626 10628 10629 10630 10632
10638 10637 10636 10635 10634 10633 10632 10631 10630 10629 10628 10627 10625 10625 10624 10624 10623 10622 10622 10621 10621 10621 10620 10619 10618 10617 10616 10615 10613 10611 10609 10607 10605 10604 10604 10603 10603 10602 10603 10603 10604 10604 10605 10606 10607 10608 10609 10610 10611 10612 10614 10615 10615 10615 10617 10618 10619 10621 10622 10623 10625 10626 10627
10633 10632 10631 10630 10629 10628 10627 10626 10625 10624 10623 10621 10620 10620 10619 10618 10618 10617 10617 10616 10616 10616 10616 10615 10614 10612 10611 10610 10609 10608 10606 10604 10603 10601 10601 10600 10600 10600 10600 10600 10600 10601 10601 10602 10602 10603 10604 10605 10606 10607 10608 10609 10609 10610 10612 10613 10615 10617 10618 10618 10619 10620 10621
10628 10627 10626 10625 10624 10623 10622 10621 10620 10619 10618 10617 10616 10615 10614 10613 10613 10612 10611 10611 10610 10610 10610 10610 10609 10608 10607 10606 10605 10604 10603 10601 10600 10598 10597 10597 10597 10597 10596 10596 10596 10596 10597 10597 10598 10598 10600 10601 10601 10602 10603 10603 10604 10605 10606 10608 10610 10612 10613 10613 10613 10613 10614
10623 10622 10621 10620 10619 10618 10617 10616 10615 10614 10613 10612 10611 10610 10609 10609 10608 10607 10606 10606 10605 10605 10605 10605 10604 10603 10602 10601 10600 10600 10599 10598 10596 10595 10594 10593 10593 10593 10592 10592 10592 10592 10592 10593 10593 10594 10595 10595 10596 10597 10597 10598 10599 10600 10601 10603 10604 10606 10607 10608 10608 10609 10608
10618 10617 10616 10615 10614 10613 10612 10611 10610 10609 10608 10607 10606 10605 10604 10604 10603 10602 10601 10600 10599 10599 10599 10599 10598 10598 10597 10596 10595 10595 10594 10593 10592 10591 10590 10589 10589 10589 10588 10588 10588 10588 10588 10588 10588 10589 10590 10590 10591 10592 10593 10593 10594 10595 10596 10598 10598 10600 10601 10603 10604 10604 10603
10613 10612 10611 10610 10609 10608 10607 10606 10605 10604 10603 10602 10601 10600 10599 10598 10598 10597 10596 10595 10594 10593 10593 10593 10592 10592 10591 10591 10590 10589 10589 10588 10587 10587 10586 10585 10584 10584 10584 10583 10583 10583 10583 10582 10583 10584 10584 10585 10586 10586 10587 10588 10589 10590 10591 10592 10592 10593 10596 10597 10597 10598 10597
10607 10606 10605 10604 10603 10603 10602 10601 10600 10599 10598 10597 10596 10595 10594 10593 10592 10591 10590 10589 10588 10587 10587 10587 10586 10586 10585 10585 10584 10583 10583 10582 10581 10581 10581 10580 10579 10579 10578 10578 10578 10577 10577 10577 10577 10578 10579 10579 10580 10580 10581 10582 10583 10584 10585 10585 10586 10586 10589 10590 10590 10591 10591
10602 10601 10600 10599 10598 10597 10597 10596 10595 10594 10592 10591 10590 10589 10588 10586 10585 10584 10584 10583 10582 10581 10581 10580 10580 10579 10579 10578 10578 10577 10576 10576 10575 10575 10574 10574 10574 10573 10573 10572 10572 10571 10571 10571 10571 10571 10572 10573 10573 10574 10575 10575 10576 10577 10578 10579 10579 10579 10580 10582 10582 10583 10583
10596 10595 10595 10594 10593 10592 10591 10590 10589 10588 10587 10585 10584 10582 10581 10580 10579 10578 10577 10576 10575 10574 10573 10573 10572 10572 10571 10571 10570 10570 10570 10569 10568 10568 10567 10567 10567 10567 10566 10566 10566 10565 10564 10564 10564 10564 10565 10565 10566 10567 10567 10568 10569 10570 10571 10571 10572 10572 10572 10573 10574 10574 10575
10591 10590 10589 10589 10588 10587 10586 10584 10583 10582 10580 10579 10577 10576 10574 10573 10571 10571 10570 10569 10568 10567 10566 10565 10564 10564 10563 10563 10563 10562 10562 10562 10561 10561 10560 10560 10559 10559 10559 10559 10559 10559 10558 10557 10556 10556 10557 10557 10558 10559 10559 10560 10561 10562 10563 10563 10564 10564 10563 10564 10566 10566 10566
10585 10584 10584 10583 10582 10581 10580 10579 10577 10576 10574 10573 10571 10569 10568 10566 10564 10563 10562 10561 10560 10559 10558 10557 10556 10556 10555 10555 10555 10554 10554 10554 10554 10553 10552 10552 10552 10552 10552 10551 10551 10551 10551 10550 10549 10548 10548 10549 10549 10550 10550 10551 10552 10553 10554 10554 10555 10555 10555 10556 10557 10558 10558
10579 10579 10579 10578 10577 10576 10574 10573 10571 10570 10568 10567 10565 10563 10562 10560 10558 10556 10554 10553 10552 10551 10550 10549 10549 10548 10547 10547 10546 10546 10546 10545 10545 10545 10544 10544 10544 10543 10543 10543 10543 10543 10543 10542 10542 10541 10540 10540 10540 10540 10541 10541 10542 10543 10544 10544 10545 10546 10546 10546 10547 10548 10549
10573 10573 10573 10573 10571 10570 10568 10567 10565 10564 10562 10561 10559 10557 10556 10554 10552 10550 10548 10546 10545 10544 10542 10541 10541 10540 10539 10539 10538 10538 10537 10537 10536 10536 10536 10535 10535 10534 10534 10534 10534 10534 10534 10533 10533 10532 10532 10531 10531 10531 10530 10531 10532 10532 10533 10533 10534 10535 10536 10536 10536 10537 10537
10568 10568 10568 10567 10565 10564 10562 10561 10559 10558 10556 10555 10553 10551 10549 10547 10545 10543 10541 10539 10538 10536 10535 10534 10533 10532 10531 10530 10529 10529 10528 10528 10527 10527 10527 10526 10525 10525 10524 10524 10524 10524 10524 10524 10524 10523 10522 10522 10521 10521 10520 10520 10521 10522 10522 10522 10523 10524 10524 10525 10525 10525 10526
10563 10563 10562 10561 10559 10558 10556 10555 10553 10552 10550 10548 10546 10544 10543 10541 10539 10537 10535 10533 10531 10529 10527 10526 10525 10524 10523 10522 10521 10520 10519 10519 10518 10518 10517 10516 10515 10515 10514 10514 10513 10513 10513 10513 10513 10513 10512 10512 10511 10510 10509 10509 10510 10511 10511 10511 10511 10511 10512 10513 10513 10513 10514
10558 10557 10556 10554 10553 10551 10550 10549 10547 10545 10544 10542 10540 10538 10536 10534 10532 10530 10528 10526 10524 10522 10520 10519 10517 10516 10515 10513 10512 10511 10510 10509 10509 10508 10507 10506 10505 10504 10504 10503 10502 10502 10502 10501 10501 10501 10500 10500 10500 10499 10498 10498 10498 10499 10499 10499 10499 10499 10500 10501 10501 10501 10502
10552 10551 10549 10548 10547 10545 10544 10543 10541 10539 10537 10535 10533 10531 10529 10527 10524 10522 10520 10518 10516 10514 10513 10511 10509 10508 10506 10505 10503 10502 10501 10500 10499 10498 10497 10496 10495 10494 10493 10492 10491 10490 10489 10488 10488 10487 10487 10487 10487 10487 10486 10486 10486 10486 10486 10486 10487 10487 10487 10488 10489 10489 10489
10546 10544 10543 10542 10540 10539 10538 10536 10534 10532 10530 10529 10527 10524 10522 10519 10517 10515 10513 10511 10509 10507 10505 10503 10501 10499 10497 10496 10494 10493 10491 10490 10489 10487 10486 10485 10483 10482 10481 10479 10478 10477 10476 10475 10474 10473 10473 10472 10472 10472 10472 10472 10473 10473 10473 10473 10473 10474 10474 10475 10476 10476 10477
10539 10538 10537 10536 10534 10533 10531 10530 10528 10526 10524 10522 10520 10517 10515 10512 10510 10508 10506 10503 10501 10499 10497 10495 10493 10491 10489 10487 10485 10483 10481 10480 10478 10476 10475 10473 10471 10470 10468 10466 10464 10463 10462 10461 10460 10459 10458 10457 10457 10457 10457 10457 10457 10458 10459 10459 10459 10459 10460 10461 10462 10463 10464
10533 10532 10531 10529 10528 10526 10525 10523 10521 10519 10517 10515 10513 10510 10508 10505 10503 10501 10498 10496 10494 10492 10489 10487 10485 10483 10481 10479 10476 10474 10471 10469 10467 10465 10463 10460 10458 10456 10454 10452 10450 10448 10447 10446 10444 10444 10443 10442 10441 10441 10441 10441 10441 10442 10442 10443 10444 10445 10445 10446 10447 10448 10450
10527 10526 10524 10523 10521 10520 10518 10517 10515 10513 10511 10508 10506 10503 10501 10498 10496 10494 10491 10489 10487 10484 10481 10479 10477 10475 10472 10470 10467 10464 10461 10458 10455 10453 10450 10447 10445 10442 10440 10438 10436 10434 10432 10430 10429 10428 10427 10426 10426 10425 10425 10425 10425 10425 10426 10427 10428 10429 10430 10431 10432 10433 10435